Regional Weather Roundup
Issued by NWS

Home | Current Version | Previous Version | Graphics & Text | Print | Product List | Glossary Off
Versions: 1 2 3 4 5 6 7 8 9 10 11 12 13 14 15 16 17 18 19 20 21 22 23 24 25 26 27 28 29 30 31 32 33 34 35 36 37 38 39 40 41 42 43 44 45 46 47 48 49 50

817
ASUS43 KMPX 102010
RWRMN
WEATHER ROUNDUP FOR MINNESOTA
NATIONAL WEATHER SERVICE TWIN CITIES/CHANHASSEN MN
200 PM CST WED FEB 10 2016


NOTE: "FAIR" INDICATES FEW OR NO CLOUDS BELOW 12,000 FEET WITH NO
SIGNIFICANT WEATHER AND/OR OBSTRUCTIONS TO VISIBILITY. N/A MEANS
CURRENT SKY AND/OR WEATHER CONDITIONS ARE NOT AVAILABLE.

MNZ060>063-068>070-102100-
   Twin Cities Metro

CITY           SKY/WX    TMP DP  RH WIND       PRES   REMARKS
TWIN CITIES    CLOUDY    12  -3  51 N3        30.10F
ST PAUL        CLOUDY     9  -4  55 VRB3      30.13F
CRYSTAL        CLOUDY    12  -4  48 NE6       30.10F WCI   3
BLAINE         PTSUNNY   10  -2  56 N7        30.10F WCI   0
LAKEVILLE      MOSUNNY   10   0  61 NE3       30.09S
EDEN PRAIRIE   CLOUDY    13  -3  49 NE7       30.09F WCI   3
SOUTH ST PAUL  CLOUDY    11  -4  51 N6        30.11F WCI   1
LAKE ELMO      FAIR      10  -4  52 N3        30.11F
$$
MNZ001>005-007-008-013>017-022>024-027-028-102100-
   Northwest Minnesota

CITY           SKY/WX    TMP DP  RH WIND       PRES   REMARKS
BEMIDJI        CLOUDY     5  -6  61 CALM      30.09F
HALLOCK        CLOUDY     7  -6  56 NE5       30.21R WCI  -2
ROSEAU         CLOUDY     0  -8  71 NE6         N/A  WCI -12
WARROAD        CLOUDY    -2 -11  65 NE5       30.19S WCI -12
THIEF RVR FALL CLOUDY     5  -4  66 NE10      30.16R WCI -10
CROOKSTON      CLOUDY     9   0  66 E6        30.18R WCI  -1
FOSSTON        CLOUDY     9  -4  56 NE7       30.11S WCI  -3
DETROIT LAKES  CLOUDY    12   0  57 CALM      30.09R
MOORHEAD       MOSUNNY   12   1  62 CALM      30.14R
PARK RAPIDS    CLOUDY     9  -6  50 E5        30.07S WCI   1
MAHNOMEN       CLOUDY     9  -1  62 N6        30.10R WCI  -1
$$
MNZ006-009>011-018-025>026-102100-
   North Central Minnesota

CITY           SKY/WX    TMP DP  RH WIND       PRES   REMARKS
BAUDETTE       CLOUDY    -2 -13  59 W5        30.15S WCI -12
FLAG ISLAND    SUNNY     -4 -11  71 NW5       30.19R WCI -15
INTL FALLS     SUNNY     -1 -13  56 CALM      30.14F
WASKISH        CLOUDY     1  -8  66 W6        30.14S WCI -10
LONGVILLE      SUNNY      7  -8  51 NE3       30.10R
GRAND RAPIDS   SUNNY      5  -9  51 CALM      30.09S
CRANE LAKE     SUNNY      0 -11  60 NE3       30.15F
ORR            SUNNY      1 -11  55 CALM      30.08S
COOK           SUNNY      3  -9  55 N5        30.10R WCI  -6
WALKER         CLOUDY     4  -7  60 E3        30.09F
$$
MNZ012-019>021-037-102100-
   Northeast Minnesota

CITY           SKY/WX    TMP DP  RH WIND       PRES   REMARKS
DULUTH         SUNNY      8  -9  45 N9        30.04F WCI  -5
ELY            SUNNY      1  -8  66 W6        30.07S WCI -10
HIBBING        FLURRIES   4  -8  57 NW7       30.07F WCI  -8
EVELETH        SUNNY      7  -9  47 NE5       30.08S WCI  -2
DULUTH HARBOR  SUNNY      9   0  66 CALM      30.14F
TWO HARBORS    SUNNY     12  -2  52 SE6       30.06S WCI   3
SILVER BAY     SUNNY     12  -9  37 N3        30.05F
GRAND MARAIS     N/A      9  -8  46 VRB7      30.11F WCI  -2
G MARAIS ARPRT SUNNY      1 -11  55 NW8       29.98F WCI -12
$$
MNZ029>031-032-039>041-046>048-054>057-064-102100-
   West Central Minnesota

CITY           SKY/WX    TMP DP  RH WIND       PRES   REMARKS
FERGUS FALLS   CLOUDY    12   0  57 E3        30.13R
WHEATON        LGT SNOW  12   7  79 E8        30.11S WCI   1
MORRIS         CLOUDY    12   1  62 E6        30.07S WCI   3
ALEXANDRIA     CLOUDY    10  -2  58 E6        30.07R WCI   0
ELBOW LAKE     CLOUDY    12   0  59 SE6       30.09R HAZE    WCI   2
WADENA         CLOUDY     9  -4  56 CALM      30.07S
GLENWOOD       CLOUDY    12   0  57 E8        30.07S WCI   1
APPLETON       FLURRIES  12   5  73 E5        30.09R WCI   4
BENSON         CLOUDY    12   1  62 CALM      30.07F
ORTONVILLE     FLURRIES  10   3  72 E7        30.07S WCI   0
MADISON        FLURRIES  12   7  79 SE7       30.07S WCI   2
WILLMAR        FAIR      14   3  62 E8        30.08S WCI   3
$$
MNZ033>034-036-042>043-049>051-058-059-102100-
   Central Minnesota

CITY           SKY/WX    TMP DP  RH WIND       PRES   REMARKS
ST CLOUD       MOSUNNY   10  -4  53 N6        30.09F WCI   0
SAUK CENTRE    FAIR      10  -2  59 E6        30.08S WCI   0
PAYNESVILLE    CLOUDY    12  -1  56 E5        30.07F WCI   4
AITKIN         CLOUDY     9 -11  40 CALM      30.09R
PINE RIVER       N/A      7  -6  56 N3        30.12S
BRAINERD       CLOUDY     8  -7  50 NE3       30.09S
STAPLES        CLOUDY     9  -6  52 N3        30.08S
LONG PRAIRIE   CLOUDY    10  -4  52 CALM      30.08R
LITTLE FALLS   MOSUNNY   10  -6  48 CALM      30.10S
LITCHFIELD     CLOUDY    12   1  62 CALM      30.08S
BUFFALO        CLOUDY    11  -3  54 NE3       30.11F
MAPLE LAKE     CLOUDY    12   0  57 NE5       30.10F WCI   4
$$
MNZ037-044-045-052-053-102100-
   East Central Minnesota

CITY           SKY/WX    TMP DP  RH WIND       PRES   REMARKS
PRINCETON      MOSUNNY   10  -4  52 N5        30.10S WCI   2
MORA           MOSUNNY   10  -6  48 CALM      30.12S
CAMBRIDGE      CLOUDY     9  -4  56 CALM      30.10S
RUSH CITY      CLOUDY     7  -5  57 N5        30.12S WCI  -2
MOOSE LAKE     MOSUNNY   10  -9  40 CALM      30.08S
HINCKLEY       FAIR      10  -6  48 NE3       30.10F
CLOQUET        SUNNY      7  -9  47 CALM      30.06F
MCGREGOR       SUNNY      9  -6  52 N5        30.10R WCI   0
$$
MNZ071>073-080-081-089-090-097-098-102100-
   Southwest Minnesota

CITY           SKY/WX    TMP DP  RH WIND       PRES   REMARKS
MONTEVIDEO     LGT SNOW  12   7  79 SE8       30.09S WCI   1
GRANITE FALLS  FLURRIES  14   7  73 E7        30.08S WCI   4
CANBY          FLURRIES  15  10  79 SE8       30.06S WCI   4
MARSHALL       FLURRIES  11   5  77 E9        30.06S WCI  -2
REDWOOD FALLS  CLOUDY    12   2  64 E6        30.07F WCI   3
OLIVIA         CLOUDY    16   5  62 E6        30.07S WCI   7
PIPESTONE      CLOUDY    16   5  62 SE12      29.96F WCI   3
WINDOM         CLOUDY    10   7  85 NE9       30.02S WCI  -2
WORTHINGTON    CLOUDY    10   7  85 E12       30.00S WCI  -4
JACKSON        CLOUDY    12   5  73 E10       30.01F WCI  -1
TRACY          CLOUDY    12   7  80 E9        30.04S WCI  -1
SLAYTON        CLOUDY    11   8  85 E12       30.00F WCI  -3
$$
MNZ065>067-074>077-082>085-091>093-102100-
   South Central Minnesota

CITY           SKY/WX    TMP DP  RH WIND       PRES   REMARKS
MANKATO        SUNNY     12   0  57 NE6       30.07F WCI   3
NEW ULM        CLOUDY    10   0  61 E5        30.06F WCI   2
ST JAMES       CLOUDY    12   5  73 E5        30.08R WCI   4
FAIRMONT       CLOUDY    10   1  67 NE7       30.04S WCI   0
GLENCOE        CLOUDY    14   3  62 NE6       30.08F WCI   5
FARIBAULT        N/A     10  -2  56 NE7       30.07F WCI   0
OWATONNA       CLOUDY    10   0  61 NW5       30.05F WCI   2
WASECA         CLOUDY    12   1  62 N5        30.07F WCI   4
ALBERT LEA     CLOUDY    10   1  67 E6        30.04F WCI   1
$$
MNZ078>079-086>088-094>096-102100-
   Southeast Minnesota

CITY           SKY/WX    TMP DP  RH WIND       PRES   REMARKS
ROCHESTER      CLOUDY     8  -2  63 NW8       30.04S WCI  -4
RED WING       SUNNY      9  -8  47 N6        30.11S WCI  -1
STANTON        PTSUNNY   10  -1  62 NE6       30.08S WCI   0
DODGE CENTER   CLOUDY    12   0  57 N6        30.04F WCI   3
WINONA         SUNNY     14   1  57 NW5       30.10F WCI   6
AUSTIN         SUNNY     10  -2  56 N6        30.04F WCI   1
PRESTON        CLOUDY     8  -4  58 N6        30.04S WCI  -2
$$
ABBREVIATIONS USED IN REMARKS
   TC - TEMPERATURES IN CELSIUS
  WCI - WIND CHILL INDEX
   HX - HEAT INDEX
  VSB - VISIBILITY
$$




USA.gov is the U.S. government's official web portal to all federal, state and local government web resources and services.